This is the latest recevied weather packets stored in our database for station/object W5MAI. If no packets are shown the sender has not sent any weather packets the latest 10 day(s).
| Time | Temp. | Humidity | Pressure | Rain* | Wind** | Luminosity | Snow |
|---|---|---|---|---|---|---|---|
| 1778192030 | 20.56° C | 63% | 1016.7 hPa | 0 mm | - | 281 W/m² | - |
| 1778190817 | 20° C | 64% | 1017.3 hPa | 0 mm | - | 186 W/m² | - |
| 1778190236 | 20.56° C | 63% | 1017.4 hPa | 0 mm | - | 176 W/m² | - |
| 1778189031 | 20.56° C | 63% | 1017.6 hPa | 0 mm | - | 294 W/m² | - |
| 1778188460 | 20.56° C | 64% | 1017.7 hPa | 0 mm | - | 241 W/m² | - |
| 1778187813 | 20° C | 65% | 1017.6 hPa | 0 mm | - | 350 W/m² | - |
| 1778187236 | 20° C | 65% | 1017.3 hPa | 0 mm | - | 239 W/m² | - |
| 1778186660 | 20.56° C | 64% | 1017.5 hPa | 0 mm | - | 250 W/m² | - |
| 1778186031 | 20.56° C | 65% | 1017.5 hPa | 0 mm | - | 450 W/m² | - |
| 1778185458 | 20° C | 64% | 1017.4 hPa | 0 mm | - | 385 W/m² | - |
| 1778184234 | 20.56° C | 66% | 1017.2 hPa | 0 mm | - | 360 W/m² | - |
| 1778183653 | 20.56° C | 67% | 1017.3 hPa | 0 mm | - | 436 W/m² | - |
| 1778183023 | 20.56° C | 68% | 1018.1 hPa | 0 mm | - | 478 W/m² | - |
| 1778182439 | 20.56° C | 69% | 1018 hPa | 0 mm | - | 504 W/m² | - |
| 1778181853 | 20° C | 73% | 1018 hPa | 0 mm | - | 935 W/m² | - |
| 1778181236 | 19.44° C | 74% | 1018.2 hPa | 0 mm | - | 406 W/m² | - |
| 1778180662 | 18.89° C | 77% | 1018.1 hPa | 0 mm | - | 647 W/m² | - |
| 1778180020 | 17.78° C | 80% | 1018 hPa | 0 mm | - | 712 W/m² | - |
| 1778179453 | 17.22° C | 81% | 1018.3 hPa | 0 mm | - | 366 W/m² | - |
| 1778177635 | 17.22° C | 80% | 1019.4 hPa | 0 mm | - | 93 W/m² | - |
| 1778177009 | 17.22° C | 78% | 1019.3 hPa | 0 mm | - | 123 W/m² | - |
| 1778175817 | 17.22° C | 78% | 1018.8 hPa | 0 mm | - | 274 W/m² | - |
| 1778175250 | 17.22° C | 80% | 1018.9 hPa | 0 mm | - | 369 W/m² | - |
| 1778174621 | 17.22° C | 80% | 1019 hPa | 0 mm | - | 232 W/m² | - |
| 1778174045 | 16.67° C | 80% | 1018.9 hPa | 0 mm | - | 214 W/m² | - |
* Rain latest hour (hover to see other rain measurements)
** Current wind speed in m/s (hover to see current wind gust speed)